Weather History for Erzurum, Turkey

Change the Weather History Date:

Wednesday, September 11, 2013

  Actual Average Record
Temperature  
Mean Temperature 54 °F -  
Max Temperature 74 °F 67 °F 81 °F (2014)
Min Temperature 33 °F 42 °F 32 °F (1996)
Degree Days  
Heating Degree Days 12    
Growing Degree Days 4 (Base 50)    
Moisture  
Dew Point 27 °F    
Average Humidity 37    
Maximum Humidity 81    
Minimum Humidity 8    
Precipitation  
Precipitation 0.00 in 0.04 in - ()
Sea Level Pressure  
Sea Level Pressure 30.14 in    
Wind  
Wind Speed 5 mph ()    
Max Wind Speed 14 mph    
Max Gust Speed 24 mph    
Visibility 12.0 miles    
Events      
Averages and records for this station are not official NWS values.
T = Trace of Precipitation, MM = Missing Value Source: Averaged Metar Reports

Daily Weather History Graph

Daily Weather History Graph

Search for Another Location

Airport:

Trip Planner

Search our weather history database for the weather conditions in past years. The results will help you decide how hot, cold, wet, or windy it might be!

Date:

Astronomy

Sep. 11, 2013 Rise Set
Actual Time 5:52 AM EEST 6:30 PM EEST
Civil Twilight 5:25 AM EEST 6:58 PM EEST
Nautical Twilight 4:52 AM EEST 7:30 PM EEST
Astronomical Twilight 4:19 AM EEST 8:03 PM EEST
Moon 11:57 AM EEST (9/11) 10:07 PM EEST (9/11)
Length of Visible Light 13h 32m
Length of Day
12h 38m
Waxing Crescent, 35% of the Moon is Illuminated
Sep 11
Waxing Crescent
Sep 12
First Quarter
Sep 19
Full
Sep 27
Last Quarter
Oct 5
New

Hourly Weather History & Observations

Time (EEST) Temp. Windchill Dew Point Humidity Pressure Visibility Wind Dir Wind Speed Gust Speed Precip Events Conditions
12:20 AM 44.6 °F 42.2 °F 26.6 °F 49% 30.18 in - SSE 4.6 mph - N/A   Clear
12:50 AM 42.8 °F - 26.6 °F 53% 30.15 in - NNE 2.3 mph - N/A   Clear
1:20 AM 41.0 °F - 28.4 °F 61% 30.18 in - Variable 2.3 mph - N/A   Clear
1:50 AM 42.8 °F - 26.6 °F 53% 30.15 in - Variable 2.3 mph - N/A   Clear
2:20 AM 42.8 °F 41.1 °F 26.6 °F 53% 30.15 in - South 3.5 mph - N/A   Clear
2:50 AM 42.8 °F 41.1 °F 26.6 °F 53% 30.15 in - West 3.5 mph - N/A   Clear
3:00 AM 42 °F - 27 °F 43%  in 12 mi West 3.5 mph - -  
3:20 AM 41.0 °F - 26.6 °F 57% 30.15 in - WSW 1.2 mph - N/A   Clear
3:50 AM 39.2 °F - 26.6 °F 61% 30.15 in - Variable 1.2 mph - N/A   Clear
4:20 AM 37.4 °F 34.9 °F 26.6 °F 65% 30.15 in - South 3.5 mph - N/A   Clear
4:50 AM 39.2 °F - 26.6 °F 61% 30.15 in - Calm Calm - N/A   Clear
5:20 AM 35.6 °F - 28.4 °F 75% 30.15 in - Variable 1.2 mph - N/A   Clear
5:50 AM 33.8 °F - 28.4 °F 81% 30.18 in - Variable 1.2 mph - N/A   Clear
6:20 AM 33.8 °F - 26.6 °F 75% 30.18 in - Variable 1.2 mph - N/A   Clear
6:50 AM 39.2 °F - 30.2 °F 70% 30.18 in - Variable 1.2 mph - N/A   Clear
7:20 AM 44.6 °F - 32.0 °F 61% 30.18 in - Variable 1.2 mph - N/A   Clear
7:50 AM 50.0 °F - 30.2 °F 47% 30.18 in - Calm Calm - N/A   Clear
8:20 AM 53.6 °F - 33.8 °F 47% 30.18 in - North 3.5 mph - N/A   Clear
8:50 AM 57.2 °F - 33.8 °F 41% 30.18 in - NNE 3.5 mph - N/A   Clear
9:00 AM 57 °F - 33 °F 28%  in 12 mi NNE 3.5 mph - -  
9:20 AM 60.8 °F - 30.2 °F 31% 30.18 in - Variable 2.3 mph - N/A   Clear
9:50 AM 62.6 °F - 30.2 °F 30% 30.18 in - Variable 4.6 mph - N/A   Clear
10:20 AM 66.2 °F - 30.2 °F 26% 30.18 in - West 4.6 mph - N/A   Clear
10:50 AM 68.0 °F - 23.0 °F 18% 30.15 in - West 6.9 mph - N/A   Clear
11:20 AM 68.0 °F - 19.4 °F 16% 30.15 in - West 9.2 mph - N/A   Clear
11:50 AM 69.8 °F - 19.4 °F 15% 30.12 in - West 9.2 mph - N/A   Clear
12:20 PM 69.8 °F - 23.0 °F 17% 30.12 in - West 12.7 mph - N/A   Clear
12:50 PM 71.6 °F - 23.0 °F 16% 30.12 in - West 13.8 mph - N/A   Clear
1:20 PM 71.6 °F - 23.0 °F 16% 30.12 in - West 12.7 mph - N/A   Clear
1:50 PM 71.6 °F - 24.8 °F 17% 30.09 in - WSW 12.7 mph - N/A   Clear
2:20 PM 73.4 °F - 24.8 °F 16% 30.09 in - WSW 13.8 mph - N/A   Clear
2:50 PM 73.4 °F - 24.8 °F 16% 30.09 in - West 12.7 mph - N/A   Clear
3:00 PM 73 °F - 24 °F 8%  in 12 mi West 12.7 mph - -  
3:20 PM 73.4 °F - 24.8 °F 16% 30.09 in - West 11.5 mph 24.2 mph N/A   Clear
3:50 PM 73.4 °F - 23.0 °F 15% 30.09 in - WSW 13.8 mph - N/A   Clear
4:20 PM 73.4 °F - 23.0 °F 15% 30.09 in - West 13.8 mph - N/A   Clear
4:50 PM 73.4 °F - 21.2 °F 14% 30.09 in - West 12.7 mph - N/A   Clear
5:20 PM 71.6 °F - 21.2 °F 15% 30.09 in - West 12.7 mph - N/A   Clear
5:50 PM 69.8 °F - 21.2 °F 16% 30.09 in - West 12.7 mph - N/A   Clear
6:20 PM 64.4 °F - 21.2 °F 19% 30.09 in - West 10.4 mph - N/A   Clear
6:50 PM 62.6 °F - 21.2 °F 20% 30.09 in - WSW 9.2 mph - N/A   Clear
7:20 PM 59.0 °F - 23.0 °F 25% 30.12 in - NW 9.2 mph - N/A   Clear
7:50 PM 60.8 °F - 30.2 °F 31% 30.15 in - NW 9.2 mph - N/A   Clear
8:20 PM 57.2 °F - 30.2 °F 36% 30.15 in - West 6.9 mph - N/A   Clear
8:50 PM 57.2 °F - 28.4 °F 33% 30.15 in - West 6.9 mph - N/A   Clear
9:00 PM 55 °F - 31 °F 28%  in 12 mi West 6.9 mph - -  
9:20 PM 57.2 °F - 28.4 °F 33% 30.15 in - WNW 6.9 mph - N/A   Clear
9:50 PM 53.6 °F - 30.2 °F 41% 30.15 in - North 6.9 mph - N/A   Clear
10:20 PM 53.6 °F - 32.0 °F 44% 30.15 in - NNE 3.5 mph - N/A   Clear
10:50 PM 48.2 °F - 30.2 °F 50% 30.18 in - South 1.2 mph - N/A   Clear
11:20 PM 46.4 °F - 30.2 °F 53% 30.15 in - Calm Calm - N/A   Clear
11:50 PM 44.6 °F 43.1 °F 28.4 °F 53% 30.18 in - South 3.5 mph - N/A   Clear